Alexandria, MN

1:44 PM CDT on September 30, 2016 (GMT -0500)
Chandler

Weather History for KAXN - March, 2014

Change the Weather History Date:

Monday, March 31, 2014

  Actual Average Record
Temperature  
Mean Temperature 32 °F -  
Max Temperature 42 °F 44 °F 75 °F (1963)
Min Temperature 23 °F 24 °F -7 °F (1969)
Degree Days  
Heating Degree Days 33    
Moisture  
Dew Point 32 °F    
Average Humidity 85    
Maximum Humidity 100    
Minimum Humidity 73    
Precipitation  
Precipitation 0.20 in - - ()
Sea Level Pressure  
Sea Level Pressure 29.52 in    
Wind  
Wind Speed 16 mph (NE)    
Max Wind Speed 24 mph    
Max Gust Speed 37 mph    
Visibility 6 miles    
Events Rain , Snow , Thunderstorm    
Averages and records for this station are not official NWS values.
T = Trace of Precipitation, MM = Missing Value Source: NWS Daily Summary

Daily Weather History Graph

Daily Weather History Graph

Search for Another Location

Airport or City:

Trip Planner

Search our weather history database for the weather conditions in past years. The results will help you decide how hot, cold, wet, or windy it might be!

Date:

Astronomy

Mar. 31, 2014 Rise Set
Actual Time 7:03 AM CDT 7:48 PM CDT
Civil Twilight 6:33 AM CDT 8:18 PM CDT
Nautical Twilight 5:57 AM CDT 8:54 PM CDT
Astronomical Twilight 5:20 AM CDT 9:32 PM CDT
Moon 7:24 AM CDT (3/31) 9:13 PM CDT (3/31)
Length of Visible Light 13h 45m
Length of Day
12h 45m
New Moon, 1% of the Moon is Illuminated
Mar 31
New Moon
Apr 7
First Quarter
Apr 15
Full
Apr 22
Last Quarter
Apr 29
New

Hourly Weather History & Observations

Time (CDT) Temp. Windchill Dew Point Humidity Pressure Visibility Wind Dir Wind Speed Gust Speed Precip Events Conditions
12:53 AM 39.9 °F 32.5 °F 33.1 °F 77% 29.75 in 7.0 mi ENE 12.7 mph - N/A   Clear
1:53 AM 41.0 °F 33.9 °F 33.1 °F 73% 29.73 in 7.0 mi ENE 12.7 mph - N/A   Clear
2:53 AM 39.9 °F 32.1 °F 33.1 °F 77% 29.69 in 7.0 mi East 13.8 mph - N/A   Clear
3:53 AM 39.9 °F 32.9 °F 34.0 °F 79% 29.68 in 7.0 mi ENE 11.5 mph - N/A   Clear
4:53 AM 39.0 °F 30.3 °F 33.1 °F 79% 29.65 in 7.0 mi East 16.1 mph - N/A   Clear
5:53 AM 39.0 °F 31.4 °F 33.1 °F 79% 29.63 in 8.0 mi East 12.7 mph - N/A   Clear
6:53 AM 39.0 °F 30.6 °F 33.1 °F 79% 29.62 in 9.0 mi East 15.0 mph - N/A   Clear
7:53 AM 39.0 °F 31.4 °F 33.1 °F 79% 29.62 in 9.0 mi ENE 12.7 mph - N/A   Clear
8:53 AM 39.9 °F 32.5 °F 33.1 °F 77% 29.61 in 10.0 mi East 12.7 mph - N/A   Clear
9:53 AM 39.9 °F 32.1 °F 33.1 °F 77% 29.60 in 10.0 mi ENE 13.8 mph - N/A   Overcast
10:53 AM 41.0 °F 32.5 °F 34.0 °F 76% 29.58 in 10.0 mi East 17.3 mph - N/A   Overcast
11:53 AM 39.9 °F 31.1 °F 35.1 °F 83% 29.56 in 6.0 mi East 17.3 mph - 0.01 in Rain Light Rain
12:53 PM 39.9 °F 31.4 °F 36.0 °F 86% 29.53 in 7.0 mi East 16.1 mph 24.2 mph 0.00 in   Overcast
1:53 PM 41.0 °F 32.5 °F 37.0 °F 86% 29.50 in 7.0 mi East 17.3 mph - N/A   Overcast
2:53 PM 41.0 °F 33.5 °F 37.0 °F 86% 29.48 in 5.0 mi East 13.8 mph - N/A   Overcast
3:49 PM 39.2 °F 29.8 °F 37.4 °F 93% 29.41 in 5.0 mi ENE 18.4 mph - N/A   Overcast
3:53 PM 39.9 °F 31.1 °F 37.0 °F 89% 29.44 in 5.0 mi ENE 17.3 mph - N/A   Overcast
4:53 PM 39.0 °F 30.3 °F 37.0 °F 93% 29.42 in 4.0 mi ENE 16.1 mph 23.0 mph N/A   Overcast
5:39 PM 39.2 °F 30.2 °F 35.6 °F 87% 29.37 in 5.0 mi NE 17.3 mph - N/A Thunderstorm Overcast
5:53 PM 37.9 °F 29.6 °F 35.1 °F 89% 29.41 in 4.0 mi NE 13.8 mph - 0.02 in Thunderstorm Overcast
6:00 PM 37.4 °F 27.8 °F 35.6 °F 93% 29.37 in 1.8 mi NE 17.3 mph 25.3 mph 0.09 in Rain , Thunderstorm Heavy Thunderstorms and Rain
6:12 PM 37.4 °F 27.5 °F 35.6 °F 93% 29.37 in 3.0 mi NNE 18.4 mph - 0.15 in Rain , Thunderstorm Light Thunderstorms and Rain
6:53 PM 37.0 °F 27.0 °F 35.1 °F 93% 29.42 in 3.0 mi NNE 18.4 mph 23.0 mph 0.15 in   Overcast
7:06 PM 35.6 °F 25.9 °F 35.6 °F 100% 29.38 in 3.0 mi NNE 16.1 mph 26.5 mph 0.01 in Rain Light Rain
7:53 PM 36.0 °F 25.3 °F 34.0 °F 93% 29.43 in 10.0 mi NNE 19.6 mph 26.5 mph 0.02 in   Overcast
8:53 PM 36.0 °F 25.3 °F 33.1 °F 89% 29.44 in 10.0 mi North 19.6 mph 26.5 mph N/A   Overcast
9:26 PM 33.8 °F 22.5 °F 30.2 °F 87% 29.44 in 10.0 mi North 19.6 mph 28.8 mph N/A   Overcast
9:53 PM 30.9 °F 17.5 °F 28.9 °F 92% 29.49 in 10.0 mi North 24.2 mph 29.9 mph N/A   Overcast
10:53 PM 27.0 °F 12.5 °F 23.0 °F 85% 29.53 in 7.0 mi North 23.0 mph 34.5 mph N/A   Overcast
11:06 PM 26.6 °F 12.4 °F 23.0 °F 86% 29.49 in 6.0 mi North 21.9 mph 28.8 mph N/A   Overcast
11:17 PM 24.8 °F 9.3 °F 21.2 °F 86% 29.50 in 4.0 mi North 24.2 mph 33.4 mph 0.00 in Rain Light Freezing Rain
11:30 PM 24.8 °F 9.6 °F 21.2 °F 86% 29.51 in 3.0 mi NNW 23.0 mph 35.7 mph 0.00 in Rain Light Freezing Rain
11:38 PM 23.0 °F 7.6 °F 19.4 °F 86% 29.51 in 1.8 mi North 21.9 mph 36.8 mph 0.00 in Snow Light Snow
11:53 PM 23.0 °F 7.6 °F 19.0 °F 85% 29.57 in 3.0 mi North 21.9 mph 36.8 mph 0.00 in   Overcast